Location: Karaa?a�
(36.7158°N, 30.4165°E)
Time: 08:58:13
(UTC+00:00)

Cosmos 614 Rocket - Pass Details

Date: 09 April 2020
Orbit: 734 x 763 km, 74.1° (Epoch: 31 May)

Event Time Altitude Azimuth Distance (km) Brightness Sun altitude
Rises 16:48:18 0° 184° (S) 3,209 7.1 -4.8°
Reaches altitude 10° 16:50:42 10° 180° (S) 2,288 6.3 -5.3°
Maximum altitude 16:55:46 55° 104° (ESE) 912 4.1 -6.3°
Drops below altitude 10° 17:00:50 10° 27° (NNE) 2,294 6.4 -7.3°
Sets 17:03:14 0° 23° (NNE) 3,220 7.2 -7.7°
